When you browse on this site, cookies collect data to enhance your experience and personalize the content and advertising you see.
Visit our Privacy Policy to learn more. By continuing to use the site, you agree to this use of cookies and data.

Previsão horária em Polki

Hoje, 5 Agosto, Quarta-feira

Tempo Temperatura Precipitação Vento Pressão Humidade
00:00 +17°C° 0 mm 3 m/s 742 mmHg 84%
01:00 +17°C° 0 mm 4 m/s 742 mmHg 84%
02:00 +17°C° 0 mm 4 m/s 742 mmHg 85%
03:00 +17°C° 0 mm 4 m/s 742 mmHg 84%
04:00 +17°C° 0 mm 4 m/s 742 mmHg 83%
05:00 +17°C° 0 mm 4 m/s 742 mmHg 82%
06:00 +18°C° 0.1 mm 4 m/s 742 mmHg 81%
07:00 +18°C° 0.1 mm 4 m/s 742 mmHg 80%
08:00 +19°C° 0.1 mm 4 m/s 742 mmHg 79%
09:00 +19°C° 0.2 mm 3 m/s 742 mmHg 80%
10:00 +20°C° 0.2 mm 3 m/s 743 mmHg 82%
11:00 +20°C° 0.2 mm 3 m/s 743 mmHg 83%
12:00 +20°C° 0 mm 3 m/s 743 mmHg 80%
13:00 +21°C° 0 mm 3 m/s 743 mmHg 77%
14:00 +21°C° 0 mm 3 m/s 743 mmHg 74%
15:00 +21°C° 0 mm 2 m/s 744 mmHg 76%
16:00 +21°C° 0 mm 2 m/s 744 mmHg 77%
17:00 +21°C° 0 mm 2 m/s 744 mmHg 79%
18:00 +20°C° 0.1 mm 2 m/s 744 mmHg 83%
19:00 +20°C° 0.1 mm 1 m/s 744 mmHg 88%
20:00 +19°C° 0.1 mm 1 m/s 744 mmHg 92%
21:00 +19°C° 0 mm 1 m/s 744 mmHg 93%
22:00 +18°C° 0 mm 1 m/s 745 mmHg 95%
23:00 +18°C° 0 mm 1 m/s 745 mmHg 97%

Amanhã, 6 Agosto, Quinta-feira

Tempo Temperatura Precipitação Vento Pressão Humidade
00:00 +16°C° 0 mm 1 m/s 745 mmHg 97%
01:00 +16°C° 0 mm 1 m/s 745 mmHg 97%
02:00 +15°C° 0 mm 1 m/s 746 mmHg 97%
03:00 +16°C° 0 mm 1 m/s 746 mmHg 96%
04:00 +16°C° 0 mm 1 m/s 746 mmHg 95%
05:00 +16°C° 0 mm 1 m/s 746 mmHg 93%
06:00 +18°C° 0 mm 1 m/s 746 mmHg 85%
07:00 +19°C° 0 mm 1 m/s 747 mmHg 77%
08:00 +20°C° 0 mm 2 m/s 747 mmHg 68%
09:00 +21°C° 0 mm 2 m/s 747 mmHg 62%
10:00 +23°C° 0 mm 2 m/s 747 mmHg 56%
11:00 +24°C° 0 mm 3 m/s 748 mmHg 49%
12:00 +24°C° 0 mm 3 m/s 748 mmHg 48%
13:00 +25°C° 0 mm 3 m/s 748 mmHg 47%
14:00 +25°C° 0 mm 3 m/s 748 mmHg 45%
15:00 +25°C° 0 mm 3 m/s 748 mmHg 48%
16:00 +24°C° 0 mm 3 m/s 748 mmHg 51%
17:00 +24°C° 0 mm 2 m/s 748 mmHg 54%
18:00 +21°C° 0 mm 2 m/s 748 mmHg 63%
19:00 +19°C° 0 mm 2 m/s 748 mmHg 71%
20:00 +18°C° 0 mm 1 m/s 749 mmHg 80%
21:00 +16°C° 0 mm 1 m/s 749 mmHg 82%
22:00 +16°C° 0 mm 1 m/s 749 mmHg 84%
23:00 +15°C° 0 mm 1 m/s 749 mmHg 87%

Depois de amanhã, 7 Agosto, Sexta-feira

Tempo Temperatura Precipitação Vento Pressão Humidade
00:00 +15°C° 0 mm 1 m/s 749 mmHg 87%
01:00 +15°C° 0 mm 1 m/s 749 mmHg 87%
02:00 +15°C° 0 mm 1 m/s 750 mmHg 87%
03:00 +15°C° 0 mm 1 m/s 750 mmHg 87%
04:00 +15°C° 0 mm 1 m/s 750 mmHg 87%
05:00 +15°C° 0 mm 1 m/s 750 mmHg 87%
06:00 +18°C° 0 mm 1 m/s 750 mmHg 80%
07:00 +19°C° 0 mm 1 m/s 750 mmHg 74%
08:00 +21°C° 0 mm 1 m/s 750 mmHg 67%
09:00 +22°C° 0 mm 1 m/s 750 mmHg 64%
10:00 +23°C° 0 mm 1 m/s 750 mmHg 61%
11:00 +24°C° 0 mm 1 m/s 750 mmHg 57%
12:00 +24°C° 0.2 mm 1 m/s 750 mmHg 60%
13:00 +24°C° 0.2 mm 1 m/s 750 mmHg 63%
14:00 +24°C° 0.2 mm 1 m/s 750 mmHg 66%
15:00 +23°C° 0.3 mm 1 m/s 750 mmHg 71%
16:00 +22°C° 0.3 mm 1 m/s 749 mmHg 77%
17:00 +21°C° 0.3 mm 1 m/s 749 mmHg 82%
18:00 +20°C° 0 mm 1 m/s 749 mmHg 86%
19:00 +19°C° 0 mm 1 m/s 749 mmHg 89%
20:00 +18°C° 0 mm 1 m/s 749 mmHg 93%
21:00 +16°C° 0 mm 1 m/s 749 mmHg 94%
22:00 +16°C° 0 mm 1 m/s 749 mmHg 94%
23:00 +15°C° 0 mm 1 m/s 750 mmHg 95%

8 Agosto, Sábado

Tempo Temperatura Precipitação Vento Pressão Humidade
00:00 +15°C° 0 mm 1 m/s 749 mmHg 95%
01:00 +15°C° 0 mm 1 m/s 749 mmHg 95%
02:00 +14°C° 0 mm 0 m/s 749 mmHg 95%
03:00 +14°C° 0 mm 0 m/s 749 mmHg 95%
04:00 +14°C° 0 mm 0 m/s 749 mmHg 95%
05:00 +14°C° 0 mm 0 m/s 749 mmHg 95%
06:00 +16°C° 0 mm 0 m/s 749 mmHg 90%
07:00 +17°C° 0 mm 0 m/s 749 mmHg 84%
08:00 +19°C° 0 mm 0 m/s 749 mmHg 79%
09:00 +23°C° 0.1 mm 1 m/s 749 mmHg 71%
10:00 +24°C° 0.1 mm 1 m/s 749 mmHg 64%
11:00 +25°C° 0.1 mm 1 m/s 749 mmHg 56%
12:00 +26°C° 0.1 mm 1 m/s 748 mmHg 53%
13:00 +26°C° 0.1 mm 1 m/s 748 mmHg 50%
14:00 +27°C° 0.1 mm 1 m/s 748 mmHg 46%
15:00 +26°C° 0 mm 1 m/s 747 mmHg 51%
16:00 +25°C° 0 mm 1 m/s 747 mmHg 56%
17:00 +25°C° 0 mm 1 m/s 747 mmHg 61%
18:00 +23°C° 0 mm 1 m/s 746 mmHg 66%
19:00 +19°C° 0 mm 0 m/s 746 mmHg 71%
20:00 +17°C° 0 mm 0 m/s 746 mmHg 76%
21:00 +16°C° 0 mm 0 m/s 746 mmHg 78%
22:00 +18°C° 0 mm 1 m/s 746 mmHg 80%
23:00 +16°C° 0 mm 1 m/s 746 mmHg 82%

9 Agosto, Domingo

Tempo Temperatura Precipitação Vento Pressão Humidade
00:00 +15°C° 0 mm 0 m/s 746 mmHg 82%
01:00 +15°C° 0 mm 0 m/s 745 mmHg 82%
02:00 +15°C° 0 mm 0 m/s 745 mmHg 83%
03:00 +15°C° 0 mm 0 m/s 745 mmHg 82%
04:00 +15°C° 0 mm 0 m/s 745 mmHg 81%
05:00 +15°C° 0 mm 0 m/s 745 mmHg 80%
06:00 +19°C° 0 mm 1 m/s 745 mmHg 74%
07:00 +20°C° 0 mm 1 m/s 744 mmHg 69%
08:00 +22°C° 0 mm 1 m/s 744 mmHg 63%
09:00 +23°C° 0 mm 1 m/s 744 mmHg 58%
10:00 +24°C° 0 mm 1 m/s 744 mmHg 53%
11:00 +25°C° 0 mm 2 m/s 744 mmHg 47%
12:00 +25°C° 0 mm 2 m/s 743 mmHg 47%
13:00 +26°C° 0 mm 2 m/s 743 mmHg 46%
14:00 +26°C° 0 mm 2 m/s 743 mmHg 46%
15:00 +25°C° 0 mm 2 m/s 742 mmHg 49%
16:00 +25°C° 0 mm 2 m/s 742 mmHg 53%
17:00 +24°C° 0 mm 2 m/s 742 mmHg 57%
18:00 +21°C° 0 mm 2 m/s 742 mmHg 66%
19:00 +20°C° 0 mm 1 m/s 742 mmHg 76%
20:00 +18°C° 0 mm 1 m/s 741 mmHg 85%
21:00 +16°C° 0 mm 1 m/s 742 mmHg 87%
22:00 +15°C° 0 mm 1 m/s 742 mmHg 89%
23:00 +14°C° 0 mm 0 m/s 742 mmHg 92%

10 Agosto, Segunda-feira

Tempo Temperatura Precipitação Vento Pressão Humidade
00:00 +13°C° 0 mm 0 m/s 742 mmHg 93%
01:00 +13°C° 0 mm 0 m/s 741 mmHg 93%
02:00 +13°C° 0 mm 0 m/s 741 mmHg 94%
03:00 +14°C° 0 mm 1 m/s 741 mmHg 93%
04:00 +14°C° 0 mm 1 m/s 741 mmHg 92%
05:00 +14°C° 0 mm 1 m/s 741 mmHg 90%
06:00 +16°C° 0 mm 1 m/s 741 mmHg 83%
07:00 +18°C° 0 mm 2 m/s 741 mmHg 75%
08:00 +19°C° 0 mm 2 m/s 741 mmHg 68%
09:00 +20°C° 0.2 mm 2 m/s 741 mmHg 69%
10:00 +20°C° 0.2 mm 2 m/s 741 mmHg 71%
11:00 +20°C° 0.2 mm 2 m/s 741 mmHg 72%
12:00 +20°C° 0.3 mm 2 m/s 741 mmHg 75%
13:00 +20°C° 0.3 mm 2 m/s 741 mmHg 78%
14:00 +21°C° 0.3 mm 1 m/s 741 mmHg 81%
15:00 +20°C° 0.5 mm 2 m/s 740 mmHg 80%
16:00 +20°C° 0.5 mm 2 m/s 740 mmHg 80%
17:00 +20°C° 0.5 mm 2 m/s 740 mmHg 80%
18:00 +18°C° 0.1 mm 2 m/s 740 mmHg 85%
19:00 +17°C° 0.1 mm 2 m/s 741 mmHg 90%
20:00 +15°C° 0.1 mm 2 m/s 741 mmHg 94%
21:00 +14°C° 0 mm 2 m/s 741 mmHg 95%
22:00 +14°C° 0 mm 1 m/s 741 mmHg 95%
23:00 +13°C° 0 mm 1 m/s 741 mmHg 96%
Mostrar mais